Augustin Madamet

Augustin Madamet

Statistiques 2022

  • Courses courues : 495
  • Nb de victoires : 43
  • Nb de places : 137
  • Écart gagnant : 10
  • Réussite à la gagne : 9%
  • Réussite à la place : 28%
Musique : 0p 0p 0p 3p 7p 11p 11p 4p 2p 7p 1p 9p 6p 13p 2p 11p 5p 8p
DateRangCatégorieAlloc.Dist.HippodromeChevalPoidsSpé.
30/11/22 0 Galop 25 000€ Deauville Felisha 59 Plat
30/11/22 0 Galop 20 000€ Deauville Hard Talk 57,5 Plat
30/11/22 0 Galop 52 000€ Deauville Indian Wish 56 Plat
30/11/22 3 Galop 27 000€ Deauville Ma Liberte 58 Plat
29/11/22 7 Galop 52 000€ Deauville Cantilena 54,5 Plat
29/11/22 11 Galop 27 000€ Deauville Contrescarpe 57 Plat
29/11/22 11 Galop 15 000€ Deauville Cassata 55,5 Plat
29/11/22 4 Galop 27 000€ Deauville Sayed 58 Plat
28/11/22 2 Galop 12 000€ Marseille Vivaux Hadewin 62 Plat
28/11/22 7 Galop 19 000€ Marseille Vivaux Spirit Cutter 52 Plat
28/11/22 1 Galop 12 000€ Marseille Vivaux Enjoy The Silence 51 Plat
28/11/22 9 Galop 18 000€ Marseille Vivaux Marie 56,5 Plat
26/11/22 6 Galop 21 000€ Chantilly Flute En Sol 59,5 Plat lire

Très vite derrière les animateurs, a fait illusion à la distance avant de plafonner.

26/11/22 13 Galop 27 000€ Chantilly Dazzle At Dawn 58 Plat
26/11/22 2 Galop 28 000€ Chantilly Frivole 55,5 Plat
26/11/22 11 Galop 27 000€ Chantilly Mrs Rhapsody 58 Plat
25/11/22 5 Galop 30 000€ Fontainebleau Sadanori 53,5 Plat lire

Très vite en deuxième position, a progressivement faibli dans la phase finale.

25/11/22 8 Galop 21 000€ Fontainebleau Rue de Volga 60 Plat lire

N'a pu que figurer au sein du peloton.

25/11/22 3 Galop 27 000€ Fontainebleau Magic Stars 57 Plat
24/11/22 12 Galop 21 000€ Chantilly Huntba 58 Plat
24/11/22 15 Galop 19 000€ Chantilly Ile du Roume 58 Plat
24/11/22 11 Galop 20 000€ Chantilly French Atoll 58 Plat
22/11/22 11 Galop 25 000€ Deauville Pile Ou Face 59,5 Plat lire

Longtemps dans la dernière partie du peloton, a conclu convenablement.

22/11/22 5 Galop 21 000€ Deauville Saisissante 56 Plat lire

Après avoir attendu en retrait, a conclu fort honorablement.

22/11/22 7 Galop 16 000€ Deauville Mythical Creature 54,5 Plat
22/11/22 10 Galop 16 000€ Deauville Ghayadh 56 Plat lire

Jamais loin dans le parcours, a nettement faibli pour finir.

21/11/22 5 Galop 17 000€ Nancy Liora 57,5 Plat
21/11/22 7 Galop 14 000€ Nancy Monalie 58 Plat
21/11/22 4 Galop 18 000€ Nancy Plumage 59 Plat
21/11/22 5 Galop 17 000€ Nancy Tymeria 58 Plat
21/11/22 2 Galop 18 000€ Nancy Hypnotized 58 Plat
20/11/22 6 Galop 24 000€ Angers Jape de Sivola 62 Plat
20/11/22 3 Galop 17 000€ Angers Diana 58 Plat
20/11/22 10 Galop 30 000€ Angers National Dance 59,5 Plat
20/11/22 4 Galop 18 000€ Angers Pandia Selene 58 Plat
20/11/22 3 Galop 27 000€ Angers Mowgli 59 Plat
19/11/22 1 Galop 17 000€ Lyon La Soie Vadirum 58,5 Plat
19/11/22 3 Galop 12 000€ Lyon La Soie Waldenon 52 Plat
19/11/22 7 Galop 18 000€ Lyon La Soie Gwenn Ha Du 58 Plat
19/11/22 5 Galop 16 000€ Lyon La Soie Assyrian Queen 55,5 Plat
19/11/22 4 Galop 18 000€ Lyon La Soie Heron Bay 56 Plat
19/11/22 2 Galop 14 000€ Lyon La Soie Wiebke 58,5 Plat
19/11/22 7 Galop 18 000€ Lyon La Soie Los Altos 53,5 Plat
18/11/22 10 Galop 25 000€ Chantilly Lalaakey 57 Plat lire

N'a joué aucun rôle utile.

18/11/22 10 Galop 19 000€ Chantilly Pedro des Aigles 54,5 Plat
17/11/22 5 Galop 20 000€ Saint Cloud Jeu Celebre 55 Plat lire

Jamais loin dans le parcours, n'a plafonné que pour finir.

17/11/22 7 Galop 20 000€ Saint Cloud Okapina's Light 58 Plat
17/11/22 7 Galop 50 000€ Saint Cloud Haute Volee 55,5 Plat lire

Après avoir attendu en retrait, a conclu de bonne façon.

16/11/22 3 Galop 27 000€ Chantilly Moondune 57 Plat
16/11/22 12 Galop 18 000€ Chantilly Senepark 59,5 Plat